When you browse on this site, cookies collect data to enhance your experience and personalize the content and advertising you see.
Visit our Privacy Policy to learn more. By continuing to use the site, you agree to this use of cookies and data.
  • In Österreich
  • Länderverzeichnis
  • Für 7 Tage
  • Wassertemperatur
  • Wetterkarte
  • News
  • Widgets
  • user-avatar
    Anmelden

    Stündliche Wetter Krivka

    Heute, 14 Dezember, Samstag

    Zeit Temperatur Niederschläge Wind Luftdruck Luftfeuchtigkeit
    00:00 -2°C° 0 mm 4 m/S 741 mmHg 84%
    01:00 -2°C° 0 mm 4 m/S 741 mmHg 83%
    02:00 -2°C° 0 mm 4 m/S 741 mmHg 84%
    03:00 -2°C° 0 mm 4 m/S 741 mmHg 84%
    04:00 -2°C° 0 mm 5 m/S 740 mmHg 84%
    05:00 -2°C° 0 mm 5 m/S 740 mmHg 84%
    06:00 -2°C° 0 mm 5 m/S 740 mmHg 84%
    07:00 -2°C° 0 mm 5 m/S 741 mmHg 83%
    08:00 -2°C° 0 mm 5 m/S 741 mmHg 82%
    09:00 -2°C° 0 mm 5 m/S 741 mmHg 82%
    10:00 -2°C° 0 mm 5 m/S 741 mmHg 82%
    11:00 -2°C° 0 mm 5 m/S 741 mmHg 82%
    12:00 -1°C° 0 mm 5 m/S 741 mmHg 81%
    13:00 -1°C° 0 mm 5 m/S 740 mmHg 80%
    14:00 -1°C° 0 mm 4 m/S 740 mmHg 79%
    15:00 -1°C° 0 mm 4 m/S 740 mmHg 80%
    16:00 -1°C° 0 mm 4 m/S 740 mmHg 82%
    17:00 -1°C° 0 mm 4 m/S 740 mmHg 83%
    18:00 -1°C° 0 mm 4 m/S 740 mmHg 85%
    19:00 -1°C° 0 mm 4 m/S 740 mmHg 87%
    20:00 -1°C° 0 mm 4 m/S 740 mmHg 89%
    21:00 -1°C° 0 mm 4 m/S 740 mmHg 88%
    22:00 -1°C° 0 mm 4 m/S 739 mmHg 87%
    23:00 -1°C° 0 mm 4 m/S 739 mmHg 87%

    Morgen, 15 Dezember, Sonntag

    Zeit Temperatur Niederschläge Wind Luftdruck Luftfeuchtigkeit
    00:00 -1°C° 0.1 mm 4 m/S 739 mmHg 90%
    01:00 -1°C° 0.1 mm 4 m/S 739 mmHg 93%
    02:00 -1°C° 0.1 mm 4 m/S 739 mmHg 96%
    03:00 -1°C° 0.1 mm 4 m/S 738 mmHg 95%
    04:00 0°C° 0.1 mm 4 m/S 737 mmHg 95%
    05:00 +1°C° 0.1 mm 4 m/S 736 mmHg 94%
    06:00 +1°C° 0.4 mm 4 m/S 736 mmHg 94%
    07:00 +1°C° 0.4 mm 4 m/S 736 mmHg 94%
    08:00 +1°C° 0.4 mm 4 m/S 735 mmHg 94%
    09:00 +1°C° 0.7 mm 4 m/S 735 mmHg 95%
    10:00 +1°C° 0.7 mm 4 m/S 735 mmHg 95%
    11:00 +1°C° 0.7 mm 4 m/S 735 mmHg 96%
    12:00 +1°C° 0.2 mm 4 m/S 736 mmHg 91%
    13:00 +1°C° 0.2 mm 4 m/S 736 mmHg 87%
    14:00 +2°C° 0.2 mm 3 m/S 737 mmHg 82%
    15:00 +2°C° 0 mm 3 m/S 737 mmHg 82%
    16:00 +2°C° 0 mm 3 m/S 738 mmHg 81%
    17:00 +2°C° 0 mm 3 m/S 738 mmHg 81%
    18:00 +1°C° 0 mm 3 m/S 739 mmHg 82%
    19:00 +1°C° 0 mm 3 m/S 739 mmHg 84%
    20:00 +1°C° 0 mm 3 m/S 740 mmHg 85%
    21:00 0°C° 0 mm 3 m/S 740 mmHg 87%
    22:00 0°C° 0 mm 3 m/S 740 mmHg 90%
    23:00 -1°C° 0 mm 3 m/S 740 mmHg 92%

    übermorgen, 16 Dezember, Montag

    Zeit Temperatur Niederschläge Wind Luftdruck Luftfeuchtigkeit
    00:00 0°C° 0 mm 3 m/S 740 mmHg 90%
    01:00 -1°C° 0 mm 4 m/S 740 mmHg 88%
    02:00 -1°C° 0 mm 4 m/S 740 mmHg 86%
    03:00 -1°C° 0.2 mm 4 m/S 740 mmHg 89%
    04:00 -1°C° 0.2 mm 4 m/S 740 mmHg 93%
    05:00 -1°C° 0.2 mm 4 m/S 739 mmHg 96%
    06:00 0°C° 0 mm 4 m/S 740 mmHg 93%
    07:00 +1°C° 0 mm 4 m/S 740 mmHg 89%
    08:00 +1°C° 0 mm 4 m/S 740 mmHg 86%
    09:00 +1°C° 0 mm 4 m/S 741 mmHg 83%
    10:00 +1°C° 0 mm 4 m/S 741 mmHg 81%
    11:00 +1°C° 0 mm 5 m/S 741 mmHg 79%
    12:00 +1°C° 0 mm 5 m/S 741 mmHg 78%
    13:00 +1°C° 0 mm 5 m/S 742 mmHg 77%
    14:00 +1°C° 0 mm 5 m/S 742 mmHg 76%
    15:00 +1°C° 0 mm 5 m/S 743 mmHg 77%
    16:00 +1°C° 0 mm 5 m/S 743 mmHg 78%
    17:00 +1°C° 0 mm 5 m/S 744 mmHg 78%
    18:00 +1°C° 0 mm 5 m/S 744 mmHg 80%
    19:00 +1°C° 0 mm 4 m/S 745 mmHg 82%
    20:00 0°C° 0 mm 4 m/S 745 mmHg 84%
    21:00 +1°C° 0 mm 3 m/S 746 mmHg 87%
    22:00 0°C° 0 mm 3 m/S 746 mmHg 91%
    23:00 -1°C° 0 mm 3 m/S 746 mmHg 94%

    17 Dezember, Dienstag

    Zeit Temperatur Niederschläge Wind Luftdruck Luftfeuchtigkeit
    00:00 -1°C° 0 mm 2 m/S 746 mmHg 94%
    01:00 -1°C° 0 mm 2 m/S 746 mmHg 94%
    02:00 -1°C° 0 mm 2 m/S 746 mmHg 94%
    03:00 +1°C° 0 mm 2 m/S 746 mmHg 92%
    04:00 0°C° 0 mm 3 m/S 746 mmHg 91%
    05:00 0°C° 0 mm 3 m/S 746 mmHg 89%
    06:00 +1°C° 0.2 mm 3 m/S 746 mmHg 91%
    07:00 +1°C° 0.2 mm 3 m/S 745 mmHg 92%
    08:00 +1°C° 0.2 mm 3 m/S 745 mmHg 94%
    09:00 +1°C° 0.4 mm 3 m/S 745 mmHg 94%
    10:00 +2°C° 0.4 mm 3 m/S 745 mmHg 95%
    11:00 +2°C° 0.4 mm 3 m/S 745 mmHg 95%
    12:00 +2°C° 0.4 mm 3 m/S 744 mmHg 95%
    13:00 +2°C° 0.4 mm 3 m/S 744 mmHg 95%
    14:00 +2°C° 0.4 mm 3 m/S 744 mmHg 95%
    15:00 +2°C° 0.1 mm 3 m/S 744 mmHg 95%
    16:00 +2°C° 0.1 mm 3 m/S 744 mmHg 94%
    17:00 +2°C° 0.1 mm 3 m/S 743 mmHg 94%
    18:00 +2°C° 0 mm 3 m/S 743 mmHg 94%
    19:00 +2°C° 0 mm 3 m/S 743 mmHg 95%
    20:00 +2°C° 0 mm 3 m/S 743 mmHg 95%
    21:00 +2°C° 0 mm 3 m/S 743 mmHg 95%
    22:00 +2°C° 0 mm 3 m/S 743 mmHg 95%
    23:00 +2°C° 0 mm 3 m/S 743 mmHg 95%

    18 Dezember, Mittwoch

    Zeit Temperatur Niederschläge Wind Luftdruck Luftfeuchtigkeit
    00:00 +2°C° 0 mm 3 m/S 743 mmHg 95%
    01:00 +2°C° 0 mm 3 m/S 743 mmHg 95%
    02:00 +2°C° 0 mm 3 m/S 743 mmHg 95%
    03:00 +2°C° 0 mm 3 m/S 742 mmHg 95%
    04:00 +3°C° 0 mm 2 m/S 742 mmHg 95%
    05:00 +3°C° 0 mm 2 m/S 742 mmHg 96%
    06:00 +3°C° 0 mm 2 m/S 742 mmHg 96%
    07:00 +3°C° 0 mm 2 m/S 742 mmHg 96%
    08:00 +3°C° 0 mm 2 m/S 742 mmHg 96%
    09:00 +3°C° 0 mm 2 m/S 742 mmHg 95%
    10:00 +3°C° 0 mm 2 m/S 742 mmHg 93%
    11:00 +3°C° 0 mm 3 m/S 742 mmHg 92%
    12:00 +3°C° 0 mm 3 m/S 742 mmHg 91%
    13:00 +3°C° 0 mm 3 m/S 742 mmHg 90%
    14:00 +4°C° 0 mm 3 m/S 741 mmHg 89%
    15:00 +4°C° 0 mm 3 m/S 741 mmHg 90%
    16:00 +4°C° 0 mm 3 m/S 741 mmHg 90%
    17:00 +4°C° 0 mm 4 m/S 741 mmHg 91%
    18:00 +4°C° 0 mm 4 m/S 741 mmHg 91%
    19:00 +4°C° 0 mm 4 m/S 740 mmHg 90%
    20:00 +4°C° 0 mm 4 m/S 740 mmHg 90%
    21:00 +3°C° 0 mm 5 m/S 740 mmHg 90%
    22:00 +3°C° 0 mm 5 m/S 740 mmHg 89%
    23:00 +5°C° 0 mm 5 m/S 739 mmHg 88%

    19 Dezember, Donnerstag

    Zeit Temperatur Niederschläge Wind Luftdruck Luftfeuchtigkeit
    00:00 +5°C° 0 mm 5 m/S 739 mmHg 86%
    01:00 +5°C° 0 mm 5 m/S 739 mmHg 84%
    02:00 +4°C° 0 mm 6 m/S 739 mmHg 81%
    03:00 +4°C° 0 mm 6 m/S 740 mmHg 80%
    04:00 +3°C° 0 mm 6 m/S 741 mmHg 78%
    05:00 +3°C° 0 mm 5 m/S 741 mmHg 77%
    06:00 +2°C° 0 mm 5 m/S 742 mmHg 80%
    07:00 +1°C° 0 mm 4 m/S 743 mmHg 83%
    08:00 +1°C° 0 mm 3 m/S 743 mmHg 86%
    09:00 +1°C° 0 mm 3 m/S 744 mmHg 84%
    10:00 +2°C° 0 mm 3 m/S 744 mmHg 82%
    11:00 +2°C° 0 mm 3 m/S 745 mmHg 80%
    12:00 +2°C° 0 mm 3 m/S 745 mmHg 79%
    13:00 +1°C° 0 mm 4 m/S 745 mmHg 77%
    14:00 +1°C° 0 mm 4 m/S 745 mmHg 76%
    15:00 0°C° 0 mm 4 m/S 746 mmHg 79%
    16:00 +1°C° 0 mm 3 m/S 746 mmHg 83%
    17:00 0°C° 0 mm 3 m/S 746 mmHg 87%
    18:00 0°C° 0 mm 3 m/S 747 mmHg 88%
    19:00 -1°C° 0 mm 2 m/S 747 mmHg 90%
    20:00 -1°C° 0 mm 2 m/S 747 mmHg 91%
    21:00 -1°C° 0 mm 2 m/S 747 mmHg 92%
    22:00 -1°C° 0 mm 2 m/S 748 mmHg 94%
    23:00 -2°C° 0 mm 2 m/S 748 mmHg 95%
    Mehr zeigen